owner,sensor,date,latitude,longitude,vertical_datum,sea_water_temperature,qcFlag
Kerr-McGee,ioos:station:wmo:42377:2,2020-06-01T00:19:00Z,27.2925,-90.9681,21.3,26.8,11111222
Kerr-McGee,ioos:station:wmo:42377:2,2020-06-01T00:39:00Z,27.2925,-90.9681,21.3,27.3,11111222
Kerr-McGee,ioos:station:wmo:42377:2,2020-06-01T00:59:00Z,27.2925,-90.9681,21.3,27.3,11111222
Kerr-McGee,ioos:station:wmo:42377:2,2020-06-01T01:19:00Z,27.2925,-90.9681,21.3,26.6,11111222
Kerr-McGee,ioos:station:wmo:42377:2,2020-06-01T01:39:00Z,27.2925,-90.9681,21.3,27.1,11111222
Kerr-McGee,ioos:station:wmo:42377:2,2020-06-01T01:59:00Z,27.2925,-90.9681,21.3,26.6,11111222
Kerr-McGee,ioos:station:wmo:42377:2,2020-06-01T02:19:00Z,27.2925,-90.9681,21.3,26.6,11111222
Kerr-McGee,ioos:station:wmo:42377:2,2020-06-01T02:39:00Z,27.2925,-90.9681,21.3,27.3,11111222
Kerr-McGee,ioos:station:wmo:42377:2,2020-06-01T02:59:00Z,27.2925,-90.9681,21.3,27.2,11111222
Kerr-McGee,ioos:station:wmo:42377:2,2020-06-01T03:19:00Z,27.2925,-90.9681,21.3,27.3,11111222
Kerr-McGee,ioos:station:wmo:42377:2,2020-06-01T03:39:00Z,27.2925,-90.9681,21.3,27.4,11111222
Kerr-McGee,ioos:station:wmo:42377:2,2020-06-01T03:59:00Z,27.2925,-90.9681,21.3,27.4,11111222
Kerr-McGee,ioos:station:wmo:42377:2,2020-06-01T04:19:00Z,27.2925,-90.9681,21.3,27.4,11111222
Kerr-McGee,ioos:station:wmo:42377:2,2020-06-01T04:39:00Z,27.2925,-90.9681,21.3,26.9,11111222
Kerr-McGee,ioos:station:wmo:42377:2,2020-06-01T04:59:00Z,27.2925,-90.9681,21.3,27.5,11111222
Kerr-McGee,ioos:station:wmo:42377:2,2020-06-01T05:19:00Z,27.2925,-90.9681,21.3,27.5,11111222
Kerr-McGee,ioos:station:wmo:42377:2,2020-06-01T05:39:00Z,27.2925,-90.9681,21.3,26.9,11111222
Kerr-McGee,ioos:station:wmo:42377:2,2020-06-01T05:59:00Z,27.2925,-90.9681,21.3,26.9,11111222
Kerr-McGee,ioos:station:wmo:42377:2,2020-06-01T06:19:00Z,27.2925,-90.9681,21.3,27.0,11111222
Kerr-McGee,ioos:station:wmo:42377:2,2020-06-01T06:39:00Z,27.2925,-90.9681,21.3,27.0,11111222
Kerr-McGee,ioos:station:wmo:42377:2,2020-06-01T06:59:00Z,27.2925,-90.9681,21.3,27.5,11111222
Kerr-McGee,ioos:station:wmo:42377:2,2020-06-01T07:19:00Z,27.2925,-90.9681,21.3,27.1,11111222
Kerr-McGee,ioos:station:wmo:42377:2,2020-06-01T07:39:00Z,27.2925,-90.9681,21.3,27.1,11111222
Kerr-McGee,ioos:station:wmo:42377:2,2020-06-01T07:59:00Z,27.2925,-90.9681,21.3,27.7,11111222
Kerr-McGee,ioos:station:wmo:42377:2,2020-06-01T08:19:00Z,27.2925,-90.9681,21.3,27.4,11111222
Kerr-McGee,ioos:station:wmo:42377:2,2020-06-01T08:39:00Z,27.2925,-90.9681,21.3,27.7,11111222
Kerr-McGee,ioos:station:wmo:42377:2,2020-06-01T08:59:00Z,27.2925,-90.9681,21.3,27.0,11111222
Kerr-McGee,ioos:station:wmo:42377:2,2020-06-01T09:19:00Z,27.2925,-90.9681,21.3,27.2,11111222
Kerr-McGee,ioos:station:wmo:42377:2,2020-06-01T09:39:00Z,27.2925,-90.9681,21.3,27.2,11111222
Kerr-McGee,ioos:station:wmo:42377:2,2020-06-01T09:59:00Z,27.2925,-90.9681,21.3,26.7,11111222
Kerr-McGee,ioos:station:wmo:42377:2,2020-06-01T10:19:00Z,27.2925,-90.9681,21.3,27.1,11111222
Kerr-McGee,ioos:station:wmo:42377:2,2020-06-01T10:39:00Z,27.2925,-90.9681,21.3,27.1,11111222
Kerr-McGee,ioos:station:wmo:42377:2,2020-06-01T10:59:00Z,27.2925,-90.9681,21.3,27.3,11111222
Kerr-McGee,ioos:station:wmo:42377:2,2020-06-01T11:19:00Z,27.2925,-90.9681,21.3,26.7,11111222
Kerr-McGee,ioos:station:wmo:42377:2,2020-06-01T11:39:00Z,27.2925,-90.9681,21.3,26.7,11111222
Kerr-McGee,ioos:station:wmo:42377:2,2020-06-01T11:59:00Z,27.2925,-90.9681,21.3,27.4,11111222
Kerr-McGee,ioos:station:wmo:42377:2,2020-06-01T12:19:00Z,27.2925,-90.9681,21.3,27.4,11111222
Kerr-McGee,ioos:station:wmo:42377:2,2020-06-01T12:39:00Z,27.2925,-90.9681,21.3,27.2,11111222
Kerr-McGee,ioos:station:wmo:42377:2,2020-06-01T12:59:00Z,27.2925,-90.9681,21.3,27.6,11111222
Kerr-McGee,ioos:station:wmo:42377:2,2020-06-01T13:19:00Z,27.2925,-90.9681,21.3,27.2,11111222
Kerr-McGee,ioos:station:wmo:42377:2,2020-06-01T13:39:00Z,27.2925,-90.9681,21.3,27.0,11111222
Kerr-McGee,ioos:station:wmo:42377:2,2020-06-01T13:59:00Z,27.2925,-90.9681,21.3,27.0,11111222
Kerr-McGee,ioos:station:wmo:42377:2,2020-06-01T14:19:00Z,27.2925,-90.9681,21.3,27.1,11111222
Kerr-McGee,ioos:station:wmo:42377:2,2020-06-01T14:39:00Z,27.2925,-90.9681,21.3,27.3,11111222
Kerr-McGee,ioos:station:wmo:42377:2,2020-06-01T14:59:00Z,27.2925,-90.9681,21.3,27.0,11111222
Kerr-McGee,ioos:station:wmo:42377:2,2020-06-01T15:19:00Z,27.2925,-90.9681,21.3,27.0,11111222
Kerr-McGee,ioos:station:wmo:42377:2,2020-06-01T15:39:00Z,27.2925,-90.9681,21.3,27.3,11111222
Kerr-McGee,ioos:station:wmo:42377:2,2020-06-01T15:59:00Z,27.2925,-90.9681,21.3,27.6,11111222
Kerr-McGee,ioos:station:wmo:42377:2,2020-06-01T16:19:00Z,27.2925,-90.9681,21.3,27.6,11111222
Kerr-McGee,ioos:station:wmo:42377:2,2020-06-01T16:39:00Z,27.2925,-90.9681,21.3,27.1,11111222
Kerr-McGee,ioos:station:wmo:42377:2,2020-06-01T16:59:00Z,27.2925,-90.9681,21.3,27.2,11111222
Kerr-McGee,ioos:station:wmo:42377:2,2020-06-01T17:19:00Z,27.2925,-90.9681,21.3,27.0,11111222
Kerr-McGee,ioos:station:wmo:42377:2,2020-06-01T17:39:00Z,27.2925,-90.9681,21.3,27.6,11111222
Kerr-McGee,ioos:station:wmo:42377:2,2020-06-01T17:59:00Z,27.2925,-90.9681,21.3,27.0,11111222
Kerr-McGee,ioos:station:wmo:42377:2,2020-06-01T18:19:00Z,27.2925,-90.9681,21.3,27.0,11111222
Kerr-McGee,ioos:station:wmo:42377:2,2020-06-01T18:39:00Z,27.2925,-90.9681,21.3,27.0,11111222
Kerr-McGee,ioos:station:wmo:42377:2,2020-06-01T18:59:00Z,27.2925,-90.9681,21.3,27.4,11111222
Kerr-McGee,ioos:station:wmo:42377:2,2020-06-01T19:19:00Z,27.2925,-90.9681,21.3,27.6,11111222
Kerr-McGee,ioos:station:wmo:42377:2,2020-06-01T19:39:00Z,27.2925,-90.9681,21.3,26.9,11111222
Kerr-McGee,ioos:station:wmo:42377:2,2020-06-01T19:59:00Z,27.2925,-90.9681,21.3,27.1,11111222
Kerr-McGee,ioos:station:wmo:42377:2,2020-06-01T20:19:00Z,27.2925,-90.9681,21.3,27.6,11111222
Kerr-McGee,ioos:station:wmo:42377:2,2020-06-01T20:39:00Z,27.2925,-90.9681,21.3,27.6,11111222
Kerr-McGee,ioos:station:wmo:42377:2,2020-06-01T20:59:00Z,27.2925,-90.9681,21.3,27.1,11111222
Kerr-McGee,ioos:station:wmo:42377:2,2020-06-01T21:19:00Z,27.2925,-90.9681,21.3,27.1,11111222
Kerr-McGee,ioos:station:wmo:42377:2,2020-06-01T21:39:00Z,27.2925,-90.9681,21.3,27.8,11111222
Kerr-McGee,ioos:station:wmo:42377:2,2020-06-01T21:59:00Z,27.2925,-90.9681,21.3,27.8,11111222
Kerr-McGee,ioos:station:wmo:42377:2,2020-06-01T22:19:00Z,27.2925,-90.9681,21.3,27.7,11111222
Kerr-McGee,ioos:station:wmo:42377:2,2020-06-01T22:39:00Z,27.2925,-90.9681,21.3,27.3,11111222
Kerr-McGee,ioos:station:wmo:42377:2,2020-06-01T22:59:00Z,27.2925,-90.9681,21.3,27.7,11111222
Kerr-McGee,ioos:station:wmo:42377:2,2020-06-01T23:19:00Z,27.2925,-90.9681,21.3,27.3,11111222
Kerr-McGee,ioos:station:wmo:42377:2,2020-06-01T23:39:00Z,27.2925,-90.9681,21.3,27.4,11111222
Kerr-McGee,ioos:station:wmo:42377:2,2020-06-01T23:59:00Z,27.2925,-90.9681,21.3,27.3,11111222
Kerr-McGee,ioos:station:wmo:42377:2,2020-06-02T00:19:00Z,27.2925,-90.9681,21.3,27.1,11111222
Kerr-McGee,ioos:station:wmo:42377:2,2020-06-02T00:39:00Z,27.2925,-90.9681,21.3,27.7,11111222
Kerr-McGee,ioos:station:wmo:42377:2,2020-06-02T00:59:00Z,27.2925,-90.9681,21.3,27.4,11111222
Kerr-McGee,ioos:station:wmo:42377:2,2020-06-02T01:19:00Z,27.2925,-90.9681,21.3,27.3,11111222
Kerr-McGee,ioos:station:wmo:42377:2,2020-06-02T01:39:00Z,27.2925,-90.9681,21.3,27.3,11111222
Kerr-McGee,ioos:station:wmo:42377:2,2020-06-02T01:59:00Z,27.2925,-90.9681,21.3,27.8,11111222
Kerr-McGee,ioos:station:wmo:42377:2,2020-06-02T02:19:00Z,27.2925,-90.9681,21.3,27.2,11111222
Kerr-McGee,ioos:station:wmo:42377:2,2020-06-02T02:39:00Z,27.2925,-90.9681,21.3,27.8,11111222
Kerr-McGee,ioos:station:wmo:42377:2,2020-06-02T02:59:00Z,27.2925,-90.9681,21.3,27.8,11111222
Kerr-McGee,ioos:station:wmo:42377:2,2020-06-02T03:19:00Z,27.2925,-90.9681,21.3,27.4,11111222
Kerr-McGee,ioos:station:wmo:42377:2,2020-06-02T03:39:00Z,27.2925,-90.9681,21.3,27.8,11111222
Kerr-McGee,ioos:station:wmo:42377:2,2020-06-02T03:59:00Z,27.2925,-90.9681,21.3,27.4,11111222
Kerr-McGee,ioos:station:wmo:42377:2,2020-06-02T04:19:00Z,27.2925,-90.9681,21.3,27.2,11111222
Kerr-McGee,ioos:station:wmo:42377:2,2020-06-02T04:39:00Z,27.2925,-90.9681,21.3,27.7,11111222
Kerr-McGee,ioos:station:wmo:42377:2,2020-06-02T04:59:00Z,27.2925,-90.9681,21.3,27.1,11111222
Kerr-McGee,ioos:station:wmo:42377:2,2020-06-02T05:19:00Z,27.2925,-90.9681,21.3,27.6,11111222
Kerr-McGee,ioos:station:wmo:42377:2,2020-06-02T05:39:00Z,27.2925,-90.9681,21.3,27.5,11111222
Kerr-McGee,ioos:station:wmo:42377:2,2020-06-02T05:59:00Z,27.2925,-90.9681,21.3,26.9,11111222
Kerr-McGee,ioos:station:wmo:42377:2,2020-06-02T06:19:00Z,27.2925,-90.9681,21.3,27.4,11111222
Kerr-McGee,ioos:station:wmo:42377:2,2020-06-02T06:39:00Z,27.2925,-90.9681,21.3,27.5,11111222
Kerr-McGee,ioos:station:wmo:42377:2,2020-06-02T06:59:00Z,27.2925,-90.9681,21.3,26.9,11111222
Kerr-McGee,ioos:station:wmo:42377:2,2020-06-02T07:19:00Z,27.2925,-90.9681,21.3,27.5,11111222
Kerr-McGee,ioos:station:wmo:42377:2,2020-06-02T07:39:00Z,27.2925,-90.9681,21.3,26.8,11111222
Kerr-McGee,ioos:station:wmo:42377:2,2020-06-02T07:59:00Z,27.2925,-90.9681,21.3,27.3,11111222
Kerr-McGee,ioos:station:wmo:42377:2,2020-06-02T08:19:00Z,27.2925,-90.9681,21.3,27.1,11111222
Kerr-McGee,ioos:station:wmo:42377:2,2020-06-02T08:39:00Z,27.2925,-90.9681,21.3,27.2,11111222
Kerr-McGee,ioos:station:wmo:42377:2,2020-06-02T08:59:00Z,27.2925,-90.9681,21.3,27.1,11111222
Kerr-McGee,ioos:station:wmo:42377:2,2020-06-02T09:19:00Z,27.2925,-90.9681,21.3,26.9,11111222
Kerr-McGee,ioos:station:wmo:42377:2,2020-06-02T09:39:00Z,27.2925,-90.9681,21.3,26.9,11111222
Kerr-McGee,ioos:station:wmo:42377:2,2020-06-02T09:59:00Z,27.2925,-90.9681,21.3,26.7,11111222
Kerr-McGee,ioos:station:wmo:42377:2,2020-06-02T10:19:00Z,27.2925,-90.9681,21.3,26.8,11111222
Kerr-McGee,ioos:station:wmo:42377:2,2020-06-02T10:39:00Z,27.2925,-90.9681,21.3,27.3,11111222
Kerr-McGee,ioos:station:wmo:42377:2,2020-06-02T10:59:00Z,27.2925,-90.9681,21.3,26.6,11111222
Kerr-McGee,ioos:station:wmo:42377:2,2020-06-02T11:19:00Z,27.2925,-90.9681,21.3,27.3,11111222
Kerr-McGee,ioos:station:wmo:42377:2,2020-06-02T11:39:00Z,27.2925,-90.9681,21.3,26.7,11111222
Kerr-McGee,ioos:station:wmo:42377:2,2020-06-02T11:59:00Z,27.2925,-90.9681,21.3,26.9,11111222
Kerr-McGee,ioos:station:wmo:42377:2,2020-06-02T12:19:00Z,27.2925,-90.9681,21.3,27.2,11111222
Kerr-McGee,ioos:station:wmo:42377:2,2020-06-02T12:39:00Z,27.2925,-90.9681,21.3,26.8,11111222
Kerr-McGee,ioos:station:wmo:42377:2,2020-06-02T12:59:00Z,27.2925,-90.9681,21.3,26.8,11111222
Kerr-McGee,ioos:station:wmo:42377:2,2020-06-02T13:19:00Z,27.2925,-90.9681,21.3,26.7,11111222
Kerr-McGee,ioos:station:wmo:42377:2,2020-06-02T13:39:00Z,27.2925,-90.9681,21.3,26.8,11111222
Kerr-McGee,ioos:station:wmo:42377:2,2020-06-02T13:59:00Z,27.2925,-90.9681,21.3,27.3,11111222
Kerr-McGee,ioos:station:wmo:42377:2,2020-06-02T14:19:00Z,27.2925,-90.9681,21.3,27.5,11111222
Kerr-McGee,ioos:station:wmo:42377:2,2020-06-02T14:39:00Z,27.2925,-90.9681,21.3,27.1,11111222
Kerr-McGee,ioos:station:wmo:42377:2,2020-06-02T14:59:00Z,27.2925,-90.9681,21.3,27.4,11111222
Kerr-McGee,ioos:station:wmo:42377:2,2020-06-02T15:19:00Z,27.2925,-90.9681,21.3,27.6,11111222
Kerr-McGee,ioos:station:wmo:42377:2,2020-06-02T15:39:00Z,27.2925,-90.9681,21.3,27.5,11111222
Kerr-McGee,ioos:station:wmo:42377:2,2020-06-02T15:59:00Z,27.2925,-90.9681,21.3,27.4,11111222
Kerr-McGee,ioos:station:wmo:42377:2,2020-06-02T16:19:00Z,27.2925,-90.9681,21.3,27.6,11111222
Kerr-McGee,ioos:station:wmo:42377:2,2020-06-02T16:39:00Z,27.2925,-90.9681,21.3,27.5,11111222
Kerr-McGee,ioos:station:wmo:42377:2,2020-06-02T16:59:00Z,27.2925,-90.9681,21.3,27.6,11111222
Kerr-McGee,ioos:station:wmo:42377:2,2020-06-02T17:19:00Z,27.2925,-90.9681,21.3,27.5,11111222
Kerr-McGee,ioos:station:wmo:42377:2,2020-06-02T17:39:00Z,27.2925,-90.9681,21.3,26.8,11111222
Kerr-McGee,ioos:station:wmo:42377:2,2020-06-02T17:59:00Z,27.2925,-90.9681,21.3,26.9,11111222
Kerr-McGee,ioos:station:wmo:42377:2,2020-06-02T18:19:00Z,27.2925,-90.9681,21.3,27.1,11111222
Kerr-McGee,ioos:station:wmo:42377:2,2020-06-02T18:39:00Z,27.2925,-90.9681,21.3,26.9,11111222
Kerr-McGee,ioos:station:wmo:42377:2,2020-06-02T18:59:00Z,27.2925,-90.9681,21.3,26.9,11111222
Kerr-McGee,ioos:station:wmo:42377:2,2020-06-02T19:19:00Z,27.2925,-90.9681,21.3,27.1,11111222
Kerr-McGee,ioos:station:wmo:42377:2,2020-06-02T19:39:00Z,27.2925,-90.9681,21.3,27.6,11111222
Kerr-McGee,ioos:station:wmo:42377:2,2020-06-02T19:59:00Z,27.2925,-90.9681,21.3,27.6,11111222
Kerr-McGee,ioos:station:wmo:42377:2,2020-06-02T20:19:00Z,27.2925,-90.9681,21.3,27.1,11111222
Kerr-McGee,ioos:station:wmo:42377:2,2020-06-02T20:39:00Z,27.2925,-90.9681,21.3,27.2,11111222
Kerr-McGee,ioos:station:wmo:42377:2,2020-06-02T20:59:00Z,27.2925,-90.9681,21.3,27.0,11111222
Kerr-McGee,ioos:station:wmo:42377:2,2020-06-02T21:19:00Z,27.2925,-90.9681,21.3,27.2,11111222
Kerr-McGee,ioos:station:wmo:42377:2,2020-06-02T21:39:00Z,27.2925,-90.9681,21.3,26.6,11111222
Kerr-McGee,ioos:station:wmo:42377:2,2020-06-02T21:59:00Z,27.2925,-90.9681,21.3,26.5,11111222
Kerr-McGee,ioos:station:wmo:42377:2,2020-06-02T22:19:00Z,27.2925,-90.9681,21.3,26.9,11111222
Kerr-McGee,ioos:station:wmo:42377:2,2020-06-02T22:39:00Z,27.2925,-90.9681,21.3,27.0,11111222
Kerr-McGee,ioos:station:wmo:42377:2,2020-06-02T22:59:00Z,27.2925,-90.9681,21.3,27.3,11111222
Kerr-McGee,ioos:station:wmo:42377:2,2020-06-02T23:19:00Z,27.2925,-90.9681,21.3,27.1,11111222
Kerr-McGee,ioos:station:wmo:42377:2,2020-06-02T23:39:00Z,27.2925,-90.9681,21.3,27.1,11111222
Kerr-McGee,ioos:station:wmo:42377:2,2020-06-02T23:59:00Z,27.2925,-90.9681,21.3,27.7,11111222
Kerr-McGee,ioos:station:wmo:42377:2,2020-06-03T00:19:00Z,27.2925,-90.9681,21.3,27.2,11111222
Kerr-McGee,ioos:station:wmo:42377:2,2020-06-03T00:39:00Z,27.2925,-90.9681,21.3,27.1,11111222
Kerr-McGee,ioos:station:wmo:42377:2,2020-06-03T00:59:00Z,27.2925,-90.9681,21.3,27.8,11111222
Kerr-McGee,ioos:station:wmo:42377:2,2020-06-03T01:19:00Z,27.2925,-90.9681,21.3,27.2,11111222
Kerr-McGee,ioos:station:wmo:42377:2,2020-06-03T01:39:00Z,27.2925,-90.9681,21.3,27.6,11111222
Kerr-McGee,ioos:station:wmo:42377:2,2020-06-03T01:59:00Z,27.2925,-90.9681,21.3,27.2,11111222
Kerr-McGee,ioos:station:wmo:42377:2,2020-06-03T02:19:00Z,27.2925,-90.9681,21.3,27.3,11111222
Kerr-McGee,ioos:station:wmo:42377:2,2020-06-03T02:39:00Z,27.2925,-90.9681,21.3,27.3,11111222
Kerr-McGee,ioos:station:wmo:42377:2,2020-06-03T02:59:00Z,27.2925,-90.9681,21.3,27.6,11111222
Kerr-McGee,ioos:station:wmo:42377:2,2020-06-03T03:19:00Z,27.2925,-90.9681,21.3,27.8,11111222
Kerr-McGee,ioos:station:wmo:42377:2,2020-06-03T03:39:00Z,27.2925,-90.9681,21.3,27.7,11111222
Kerr-McGee,ioos:station:wmo:42377:2,2020-06-03T03:59:00Z,27.2925,-90.9681,21.3,27.7,11111222
Kerr-McGee,ioos:station:wmo:42377:2,2020-06-03T04:19:00Z,27.2925,-90.9681,21.3,27.7,11111222
Kerr-McGee,ioos:station:wmo:42377:2,2020-06-03T04:39:00Z,27.2925,-90.9681,21.3,27.3,11111222
Kerr-McGee,ioos:station:wmo:42377:2,2020-06-03T04:59:00Z,27.2925,-90.9681,21.3,27.8,11111222
Kerr-McGee,ioos:station:wmo:42377:2,2020-06-03T05:19:00Z,27.2925,-90.9681,21.3,27.1,11111222
Kerr-McGee,ioos:station:wmo:42377:2,2020-06-03T05:39:00Z,27.2925,-90.9681,21.3,27.4,11111222
Kerr-McGee,ioos:station:wmo:42377:2,2020-06-03T05:59:00Z,27.2925,-90.9681,21.3,27.8,11111222
Kerr-McGee,ioos:station:wmo:42377:2,2020-06-03T06:19:00Z,27.2925,-90.9681,21.3,27.4,11111222
Kerr-McGee,ioos:station:wmo:42377:2,2020-06-03T06:39:00Z,27.2925,-90.9681,21.3,27.4,11111222
Kerr-McGee,ioos:station:wmo:42377:2,2020-06-03T06:59:00Z,27.2925,-90.9681,21.3,27.8,11111222
Kerr-McGee,ioos:station:wmo:42377:2,2020-06-03T07:19:00Z,27.2925,-90.9681,21.3,27.6,11111222
Kerr-McGee,ioos:station:wmo:42377:2,2020-06-03T07:39:00Z,27.2925,-90.9681,21.3,27.8,11111222
Kerr-McGee,ioos:station:wmo:42377:2,2020-06-03T07:59:00Z,27.2925,-90.9681,21.3,27.7,11111222
Kerr-McGee,ioos:station:wmo:42377:2,2020-06-03T08:19:00Z,27.2925,-90.9681,21.3,27.6,11111222
Kerr-McGee,ioos:station:wmo:42377:2,2020-06-03T08:39:00Z,27.2925,-90.9681,21.3,27.4,11111222
Kerr-McGee,ioos:station:wmo:42377:2,2020-06-03T08:59:00Z,27.2925,-90.9681,21.3,27.5,11111222
Kerr-McGee,ioos:station:wmo:42377:2,2020-06-03T09:19:00Z,27.2925,-90.9681,21.3,27.0,11111222
Kerr-McGee,ioos:station:wmo:42377:2,2020-06-03T09:39:00Z,27.2925,-90.9681,21.3,27.5,11111222
Kerr-McGee,ioos:station:wmo:42377:2,2020-06-03T09:59:00Z,27.2925,-90.9681,21.3,27.3,11111222
Kerr-McGee,ioos:station:wmo:42377:2,2020-06-03T10:19:00Z,27.2925,-90.9681,21.3,27.5,11111222
Kerr-McGee,ioos:station:wmo:42377:2,2020-06-03T10:39:00Z,27.2925,-90.9681,21.3,27.1,11111222
Kerr-McGee,ioos:station:wmo:42377:2,2020-06-03T10:59:00Z,27.2925,-90.9681,21.3,27.3,11111222
Kerr-McGee,ioos:station:wmo:42377:2,2020-06-03T11:19:00Z,27.2925,-90.9681,21.3,26.9,11111222
Kerr-McGee,ioos:station:wmo:42377:2,2020-06-03T11:39:00Z,27.2925,-90.9681,21.3,27.4,11111222
Kerr-McGee,ioos:station:wmo:42377:2,2020-06-03T11:59:00Z,27.2925,-90.9681,21.3,26.8,11111222
Kerr-McGee,ioos:station:wmo:42377:2,2020-06-03T12:19:00Z,27.2925,-90.9681,21.3,27.5,11111222
Kerr-McGee,ioos:station:wmo:42377:2,2020-06-03T12:39:00Z,27.2925,-90.9681,21.3,27.1,11111222
Kerr-McGee,ioos:station:wmo:42377:2,2020-06-03T12:59:00Z,27.2925,-90.9681,21.3,26.9,11111222
Kerr-McGee,ioos:station:wmo:42377:2,2020-06-03T13:19:00Z,27.2925,-90.9681,21.3,27.0,11111222
Kerr-McGee,ioos:station:wmo:42377:2,2020-06-03T13:39:00Z,27.2925,-90.9681,21.3,27.2,11111222
Kerr-McGee,ioos:station:wmo:42377:2,2020-06-03T13:59:00Z,27.2925,-90.9681,21.3,26.9,11111222
Kerr-McGee,ioos:station:wmo:42377:2,2020-06-03T14:19:00Z,27.2925,-90.9681,21.3,27.5,11111222
Kerr-McGee,ioos:station:wmo:42377:2,2020-06-03T14:39:00Z,27.2925,-90.9681,21.3,27.6,11111222
Kerr-McGee,ioos:station:wmo:42377:2,2020-06-03T14:59:00Z,27.2925,-90.9681,21.3,27.3,11111222
Kerr-McGee,ioos:station:wmo:42377:2,2020-06-03T15:19:00Z,27.2925,-90.9681,21.3,26.9,11111222
Kerr-McGee,ioos:station:wmo:42377:2,2020-06-03T15:39:00Z,27.2925,-90.9681,21.3,27.0,11111222
Kerr-McGee,ioos:station:wmo:42377:2,2020-06-03T15:59:00Z,27.2925,-90.9681,21.3,27.7,11111222
Kerr-McGee,ioos:station:wmo:42377:2,2020-06-03T16:19:00Z,27.2925,-90.9681,21.3,27.6,11111222
Kerr-McGee,ioos:station:wmo:42377:2,2020-06-03T16:39:00Z,27.2925,-90.9681,21.3,27.7,11111222
Kerr-McGee,ioos:station:wmo:42377:2,2020-06-03T16:59:00Z,27.2925,-90.9681,21.3,27.1,11111222
Kerr-McGee,ioos:station:wmo:42377:2,2020-06-03T17:19:00Z,27.2925,-90.9681,21.3,27.4,11111222
Kerr-McGee,ioos:station:wmo:42377:2,2020-06-03T17:39:00Z,27.2925,-90.9681,21.3,27.7,11111222
Kerr-McGee,ioos:station:wmo:42377:2,2020-06-03T17:59:00Z,27.2925,-90.9681,21.3,27.2,11111222
Kerr-McGee,ioos:station:wmo:42377:2,2020-06-03T18:19:00Z,27.2925,-90.9681,21.3,27.7,11111222
Kerr-McGee,ioos:station:wmo:42377:2,2020-06-03T18:39:00Z,27.2925,-90.9681,21.3,27.7,11111222
Kerr-McGee,ioos:station:wmo:42377:2,2020-06-03T18:59:00Z,27.2925,-90.9681,21.3,27.6,11111222
Kerr-McGee,ioos:station:wmo:42377:2,2020-06-03T19:19:00Z,27.2925,-90.9681,21.3,27.6,11111222
Kerr-McGee,ioos:station:wmo:42377:2,2020-06-03T19:39:00Z,27.2925,-90.9681,21.3,27.7,11111222
Kerr-McGee,ioos:station:wmo:42377:2,2020-06-03T19:59:00Z,27.2925,-90.9681,21.3,27.3,11111222
Kerr-McGee,ioos:station:wmo:42377:2,2020-06-03T20:19:00Z,27.2925,-90.9681,21.3,27.8,11111222
Kerr-McGee,ioos:station:wmo:42377:2,2020-06-03T20:39:00Z,27.2925,-90.9681,21.3,27.2,11111222
Kerr-McGee,ioos:station:wmo:42377:2,2020-06-03T20:59:00Z,27.2925,-90.9681,21.3,27.5,11111222
Kerr-McGee,ioos:station:wmo:42377:2,2020-06-03T21:19:00Z,27.2925,-90.9681,21.3,27.7,11111222
Kerr-McGee,ioos:station:wmo:42377:2,2020-06-03T21:39:00Z,27.2925,-90.9681,21.3,27.1,11111222
Kerr-McGee,ioos:station:wmo:42377:2,2020-06-03T21:59:00Z,27.2925,-90.9681,21.3,27.1,11111222
Kerr-McGee,ioos:station:wmo:42377:2,2020-06-03T22:19:00Z,27.2925,-90.9681,21.3,27.8,11111222
Kerr-McGee,ioos:station:wmo:42377:2,2020-06-03T22:39:00Z,27.2925,-90.9681,21.3,27.8,11111222
Kerr-McGee,ioos:station:wmo:42377:2,2020-06-03T22:59:00Z,27.2925,-90.9681,21.3,27.2,11111222
Kerr-McGee,ioos:station:wmo:42377:2,2020-06-03T23:19:00Z,27.2925,-90.9681,21.3,27.6,11111222
Kerr-McGee,ioos:station:wmo:42377:2,2020-06-03T23:39:00Z,27.2925,-90.9681,21.3,27.2,11111222
Kerr-McGee,ioos:station:wmo:42377:2,2020-06-03T23:59:00Z,27.2925,-90.9681,21.3,27.4,11111222
Kerr-McGee,ioos:station:wmo:42377:2,2020-06-04T00:19:00Z,27.2925,-90.9681,21.3,27.5,11111222
Kerr-McGee,ioos:station:wmo:42377:2,2020-06-04T00:39:00Z,27.2925,-90.9681,21.3,27.7,11111222
Kerr-McGee,ioos:station:wmo:42377:2,2020-06-04T00:59:00Z,27.2925,-90.9681,21.3,27.6,11111222
Kerr-McGee,ioos:station:wmo:42377:2,2020-06-04T01:19:00Z,27.2925,-90.9681,21.3,27.6,11111222
Kerr-McGee,ioos:station:wmo:42377:2,2020-06-04T01:39:00Z,27.2925,-90.9681,21.3,27.0,11111222
Kerr-McGee,ioos:station:wmo:42377:2,2020-06-04T01:59:00Z,27.2925,-90.9681,21.3,27.6,11111222
Kerr-McGee,ioos:station:wmo:42377:2,2020-06-04T02:19:00Z,27.2925,-90.9681,21.3,26.8,11111222
Kerr-McGee,ioos:station:wmo:42377:2,2020-06-04T02:39:00Z,27.2925,-90.9681,21.3,26.8,11111222
Kerr-McGee,ioos:station:wmo:42377:2,2020-06-04T02:59:00Z,27.2925,-90.9681,21.3,27.1,11111222
Kerr-McGee,ioos:station:wmo:42377:2,2020-06-04T03:19:00Z,27.2925,-90.9681,21.3,26.8,11111222
Kerr-McGee,ioos:station:wmo:42377:2,2020-06-04T03:39:00Z,27.2925,-90.9681,21.3,27.1,11111222
Kerr-McGee,ioos:station:wmo:42377:2,2020-06-04T03:59:00Z,27.2925,-90.9681,21.3,26.4,11111222
Kerr-McGee,ioos:station:wmo:42377:2,2020-06-04T04:19:00Z,27.2925,-90.9681,21.3,26.3,11111222
Kerr-McGee,ioos:station:wmo:42377:2,2020-06-04T04:39:00Z,27.2925,-90.9681,21.3,26.4,11111222
Kerr-McGee,ioos:station:wmo:42377:2,2020-06-04T04:59:00Z,27.2925,-90.9681,21.3,26.6,11111222
Kerr-McGee,ioos:station:wmo:42377:2,2020-06-04T05:19:00Z,27.2925,-90.9681,21.3,26.8,11111222
Kerr-McGee,ioos:station:wmo:42377:2,2020-06-04T05:39:00Z,27.2925,-90.9681,21.3,26.6,11111222
Kerr-McGee,ioos:station:wmo:42377:2,2020-06-04T05:59:00Z,27.2925,-90.9681,21.3,27.1,11111222
Kerr-McGee,ioos:station:wmo:42377:2,2020-06-04T06:19:00Z,27.2925,-90.9681,21.3,26.7,11111222
Kerr-McGee,ioos:station:wmo:42377:2,2020-06-04T06:39:00Z,27.2925,-90.9681,21.3,27.1,11111222
Kerr-McGee,ioos:station:wmo:42377:2,2020-06-04T06:59:00Z,27.2925,-90.9681,21.3,27.3,11111222
Kerr-McGee,ioos:station:wmo:42377:2,2020-06-04T07:19:00Z,27.2925,-90.9681,21.3,27.2,11111222
Kerr-McGee,ioos:station:wmo:42377:2,2020-06-04T07:39:00Z,27.2925,-90.9681,21.3,27.0,11111222
Kerr-McGee,ioos:station:wmo:42377:2,2020-06-04T07:59:00Z,27.2925,-90.9681,21.3,27.1,11111222
Kerr-McGee,ioos:station:wmo:42377:2,2020-06-04T08:19:00Z,27.2925,-90.9681,21.3,26.8,11111222
Kerr-McGee,ioos:station:wmo:42377:2,2020-06-04T08:39:00Z,27.2925,-90.9681,21.3,26.9,11111222
Kerr-McGee,ioos:station:wmo:42377:2,2020-06-04T08:59:00Z,27.2925,-90.9681,21.3,26.9,11111222
Kerr-McGee,ioos:station:wmo:42377:2,2020-06-04T09:19:00Z,27.2925,-90.9681,21.3,26.3,11111222
Kerr-McGee,ioos:station:wmo:42377:2,2020-06-04T09:39:00Z,27.2925,-90.9681,21.3,26.7,11111222
Kerr-McGee,ioos:station:wmo:42377:2,2020-06-04T09:59:00Z,27.2925,-90.9681,21.3,26.2,11111222
Kerr-McGee,ioos:station:wmo:42377:2,2020-06-04T10:19:00Z,27.2925,-90.9681,21.3,26.4,11111222
Kerr-McGee,ioos:station:wmo:42377:2,2020-06-04T10:39:00Z,27.2925,-90.9681,21.3,26.4,11111222
Kerr-McGee,ioos:station:wmo:42377:2,2020-06-04T10:59:00Z,27.2925,-90.9681,21.3,26.1,11111222
Kerr-McGee,ioos:station:wmo:42377:2,2020-06-04T11:19:00Z,27.2925,-90.9681,21.3,25.6,11111222
Kerr-McGee,ioos:station:wmo:42377:2,2020-06-04T11:39:00Z,27.2925,-90.9681,21.3,25.9,11111222
Kerr-McGee,ioos:station:wmo:42377:2,2020-06-04T11:59:00Z,27.2925,-90.9681,21.3,25.5,11111222
Kerr-McGee,ioos:station:wmo:42377:2,2020-06-04T12:19:00Z,27.2925,-90.9681,21.3,24.9,11111222
Kerr-McGee,ioos:station:wmo:42377:2,2020-06-04T12:39:00Z,27.2925,-90.9681,21.3,24.4,11111222